User: anonymous   Login
Location: Unspecified
(0.0000°N, 0.0000°E)
Time: 10:19:05
(UTC+00:00)
Language:

NANOSAT C BR1 - Orbit

View from above orbital plane
View from above orbital plane
View from above satellite
View from above satellite

Ground track
Ground track

The orbit data is extracted from the following two-line orbital elements,

1 40024U 14033Q   18196.71563591 +.00000328 +00000-0 +40273-4 0  9996
2 40024 097.9084 113.6727 0013775 086.7306 273.5487 14.89596766220606
Epoch (UTC): 15 July 2018 17:10:30
Eccentricity: 0.0013775
inclination: 97.9084°
perigee height: 589 km
apogee height: 609 km
right ascension of ascending node: 113.6727°
argument of perigee: 86.7306°
revolutions per day: 14.89596766
mean anomaly at epoch: 273.5487°
orbit number at epoch: 22060

The dashed part of the orbit path shows where the satellite is in the earth's shadow,  

DLR